SV2BZQ-1 Weather Reports


time (UTC)temp
C
wind
direction
speed
KPH
gust
KPH
rain 1hr
cm
rain 24hr
cm
rain mn
cm
humidity
%
barometer
mb
20260508023400 14 268 0.0 0.0 0.00 0.00 0.00 100 1014.8
20260508023115 14 268 0.0 0.0 0.00 0.00 0.00 100 1014.8
20260508022909 14 268 0.0 0.0 0.00 0.00 0.00 100 1014.8
20260508022634 14 268 0.0 0.0 0.00 0.00 0.00 100 1014.6
20260508022206 14 268 0.0 0.0 0.00 0.00 0.00 100 1014.6
20260508022012 14 268 0.0 0.0 0.00 0.00 0.00 100 1014.6
20260508021802 14 268 0.0 0.0 0.00 0.00 0.00 100 1014.6
20260508021601 14 267 0.0 0.0 0.00 0.00 0.00 100 1014.6
20260508021333 14 268 0.0 0.0 0.00 0.00 0.00 100 1014.7
20260508021124 14 268 0.0 0.0 0.00 0.00 0.00 100 1014.7
20260508020634 14 268 0.0 0.0 0.00 0.00 0.00 100 1014.7
20260508020352 14 268 0.0 0.0 0.00 0.00 0.00 100 1014.7
20260508020148 14 268 0.0 0.0 0.00 0.00 0.00 100 1014.7
20260508015908 14 268 0.0 0.0 0.00 0.00 0.00 100 1014.7
20260508015704 14 268 0.0 0.0 0.00 0.00 0.00 100 1014.7
20260508015504 14 268 0.0 0.0 0.00 0.00 0.00 100 1014.7
20260508015251 14 268 0.0 0.0 0.00 0.00 0.00 100 1014.7
20260508015037 14 268 0.0 0.0 0.00 0.00 0.00 100 1014.7
20260508014806 14 268 0.0 0.0 0.00 0.00 0.00 100 1014.7
20260508014602 15 268 0.0 0.0 0.00 0.00 0.00 100 1014.7
20260508014413 15 268 0.0 0.0 0.00 0.00 0.00 100 1014.8
20260508014258 15 268 0.0 0.0 0.00 0.00 0.00 100 1014.8
20260508013924 15 268 0.0 0.0 0.00 0.00 0.00 100 1014.8
20260508013716 15 268 0.0 0.0 0.00 0.00 0.00 100 1014.8
20260508013506 15 268 0.0 0.0 0.00 0.00 0.00 100 1014.8
20260508013244 15 268 0.0 0.0 0.00 0.00 0.00 100 1014.8
20260508013040 15 268 0.0 0.0 0.00 0.00 0.00 100 1014.8
20260508012823 15 268 0.0 0.0 0.00 0.00 0.00 100 1014.9
20260508012607 15 268 0.0 0.0 0.00 0.00 0.00 100 1014.9
20260508012348 15 268 0.0 0.0 0.00 0.00 0.00 100 1014.9
20260508012029 15 354 0.0 0.0 0.00 0.00 0.00 100 1014.9
20260508011850 15 356 0.0 0.0 0.00 0.00 0.00 100 1014.9
20260508011505 15 356 0.0 0.0 0.00 0.00 0.00 100 1014.9
20260508011332 15 354 0.0 0.0 0.00 0.00 0.00 100 1014.9
20260508011047 15 356 0.0 0.0 0.00 0.00 0.00 100 1014.9
20260508010843 15 354 0.0 0.0 0.00 0.00 0.00 100 1014.9
20260508010645 15 354 0.0 0.0 0.00 0.00 0.00 100 1014.9
20260508010437 15 359 0.0 0.0 0.00 0.00 0.00 100 1014.9
20260508010234 15 356 0.0 0.0 0.00 0.00 0.00 100 1014.9
20260508010036 15 357 0.0 0.0 0.00 0.00 0.00 100 1014.9
20260508005832 15 356 0.0 0.0 0.00 0.00 0.00 100 1015.1
20260508005634 15 356 0.0 0.0 0.00 0.00 0.00 100 1015.1
20260508005436 15 357 0.0 0.0 0.00 0.00 0.00 100 1015.1
20260508005238 15 354 0.0 0.0 0.00 0.00 0.00 100 1015.1
20260508005012 15 357 0.0 0.0 0.00 0.00 0.00 100 1015.1
20260508004812 15 354 0.0 0.0 0.00 0.00 0.00 100 1015.1
20260508004608 15 357 0.0 0.0 0.00 0.00 0.00 100 1015.1
20260508004404 15 359 0.0 0.0 0.00 0.00 0.00 100 1015.3
20260508004202 15 357 0.0 0.0 0.00 0.00 0.00 100 1015.3
20260508003946 15 357 0.0 0.0 0.00 0.00 0.00 100 1015.3
20260508003733 15 356 0.0 0.0 0.00 0.00 0.00 100 1015.3
20260508003529 15 357 0.0 0.0 0.00 0.00 0.00 100 1015.3
20260508003323 15 354 0.0 0.0 0.00 0.00 0.00 100 1015.3
20260508003123 15 356 0.0 0.0 0.00 0.00 0.00 100 1015.3
20260508002924 15 354 0.0 0.0 0.00 0.00 0.00 100 1015.3
20260508002725 15 356 0.0 0.0 0.00 0.00 0.00 100 1015.3
20260508002325 15 356 0.0 0.0 0.00 0.00 0.00 100 1015.3
20260508002116 15 356 0.0 0.0 0.00 0.00 0.00 100 1015.3
20260508001913 15 354 0.0 0.0 0.00 0.00 0.00 100 1015.3
20260508001657 15 354 0.0 3.2 0.00 0.00 0.00 100 1015.3
20260508001248 15 354 0.0 3.2 0.00 0.00 0.00 100 1015.4
20260508001046 15 354 0.0 3.2 0.00 0.00 0.00 100 1015.4
20260508000641 15 357 0.0 3.2 0.00 0.00 0.00 100 1015.4
20260507235918 15 357 0.0 0.0 0.00 0.00 0.00 100 1015.4
20260507235716 15 354 0.0 0.0 0.00 0.00 0.00 100 1015.4
20260507235528 15 359 0.0 0.0 0.00 0.00 0.00 99 1015.4
20260507235321 15 357 0.0 0.0 0.00 0.00 0.00 99 1015.4
20260507235122 15 357 0.0 0.0 0.00 0.00 0.00 99 1015.4
20260507234919 15 0 0.0 0.0 0.00 0.00 0.00 99 1015.4
20260507234731 15 359 0.0 0.0 0.00 0.00 0.00 99 1015.4
20260507234526 15 356 0.0 0.0 0.00 0.00 0.00 99 1015.4
20260507234349 15 354 0.0 0.0 0.00 0.00 0.00 99 1015.5
20260507234108 15 352 0.0 0.0 0.00 0.00 0.00 99 1015.5
20260507233859 15 354 0.0 0.0 0.00 0.00 0.00 99 1015.5
20260507233658 15 353 0.0 0.0 0.00 0.00 0.00 99 1015.5
20260507233454 15 356 0.0 0.0 0.00 0.00 0.00 99 1015.5
20260507233249 15 0 0.0 0.0 0.00 0.00 0.00 99 1015.5
20260507233049 15 356 0.0 0.0 0.00 0.00 0.00 99 1015.5
20260507232846 15 359 0.0 0.0 0.00 0.00 0.00 98 1015.7
20260507232703 15 350 0.0 0.0 0.00 0.00 0.00 98 1015.7
20260507232444 15 353 0.0 0.0 0.00 0.00 0.00 98 1015.7
20260507232240 15 356 0.0 0.0 0.00 0.00 0.00 98 1015.7
20260507232040 15 354 0.0 0.0 0.00 0.00 0.00 98 1015.7
20260507231842 15 356 0.0 0.0 0.00 0.00 0.00 98 1015.7
20260507231438 15 354 0.0 0.0 0.00 0.00 0.00 97 1015.7
20260507231238 15 359 0.0 0.0 0.00 0.00 0.00 97 1015.8
20260507231049 15 350 0.0 0.0 0.00 0.00 0.00 97 1015.8
20260507230916 15 339 0.0 0.0 0.00 0.00 0.00 97 1015.8
20260507230740 16 322 0.0 0.0 0.00 0.00 0.00 97 1015.9
20260507230433 16 352 0.0 0.0 0.00 0.00 0.00 97 1015.9
20260507230227 16 328 0.0 0.0 0.00 0.00 0.00 97 1015.9
20260507230027 16 344 0.0 0.0 0.00 0.00 0.00 97 1015.9
20260507225838 16 320 0.0 0.0 0.00 0.00 0.00 97 1015.9
20260507225647 16 342 0.0 0.0 0.00 0.00 0.00 97 1015.9
20260507225454 16 318 0.0 0.0 0.00 0.00 0.00 97 1015.9
20260507225321 16 320 0.0 0.0 0.00 0.00 0.00 97 1015.9
20260507225027 16 320 0.0 0.0 0.00 0.00 0.00 97 1015.9
20260507224820 16 328 0.0 0.0 0.00 0.00 0.00 97 1015.9
20260507224436 16 328 0.0 0.0 0.00 0.00 0.00 96 1015.9
20260507224304 16 344 0.0 0.0 0.00 0.00 0.00 96 1016.0
20260507224018 16 330 0.0 0.0 0.00 0.00 0.00 96 1016.0
20260507223814 16 337 0.0 0.0 0.00 0.00 0.00 96 1016.0
20260507223623 16 333 0.0 0.0 0.00 0.00 0.00 96 1016.0
20260507223406 16 337 0.0 0.0 0.00 0.00 0.00 96 1016.0
20260507223210 16 325 0.0 0.0 0.00 0.00 0.00 96 1016.0
20260507223010 16 268 0.0 0.0 0.00 0.00 0.00 96 1016.0
20260507222749 16 268 0.0 0.0 0.00 0.00 0.00 96 1016.1
20260507222332 16 268 0.0 0.0 0.00 0.00 0.00 96 1016.1
20260507222137 16 268 0.0 0.0 0.00 0.00 0.00 96 1016.1
20260507222005 16 268 0.0 0.0 0.00 0.00 0.00 96 1016.1
20260507221733 16 268 0.0 0.0 0.00 0.00 0.00 96 1016.1
20260507221428 16 268 0.0 0.0 0.00 0.00 0.00 96 1016.1
20260507221221 16 268 0.0 0.0 0.00 0.00 0.00 95 1016.2
20260507221024 16 268 0.0 0.0 0.00 0.00 0.00 95 1016.2
20260507220805 16 267 0.0 0.0 0.00 0.00 0.00 95 1016.2
20260507220606 16 267 0.0 0.0 0.00 0.00 0.00 95 1016.2
20260507220355 16 267 0.0 0.0 0.00 0.00 0.00 95 1016.2
20260507220152 16 267 0.0 0.0 0.00 0.00 0.00 95 1016.2
20260507215920 16 267 0.0 0.0 0.00 0.00 0.00 95 1016.2
20260507215719 16 267 0.0 0.0 0.00 0.00 0.00 95 1015.9
20260507215515 16 267 0.0 0.0 0.00 0.00 0.00 95 1015.9
20260507215308 16 267 0.0 0.0 0.00 0.00 0.00 95 1015.9
20260507215057 16 267 0.0 0.0 0.00 0.00 0.00 95 1015.9
20260507214857 16 267 0.0 0.0 0.00 0.00 0.00 95 1015.9
20260507214626 16 267 0.0 0.0 0.00 0.00 0.00 95 1015.9
20260507214148 16 267 0.0 0.0 0.00 0.00 0.00 95 1015.9
20260507213945 16 267 0.0 0.0 0.00 0.00 0.00 95 1015.9
20260507213714 16 267 0.0 0.0 0.00 0.00 0.00 95 1015.9
20260507213509 16 267 0.0 0.0 0.00 0.00 0.00 95 1015.9
20260507213242 16 267 0.0 0.0 0.00 0.00 0.00 95 1015.9
20260507213022 16 267 0.0 0.0 0.00 0.00 0.00 95 1015.9
20260507212753 16 267 0.0 0.0 0.00 0.00 0.00 95 1015.9
20260507212544 16 267 0.0 0.0 0.00 0.00 0.00 95 1015.9
20260507212340 16 267 0.0 0.0 0.00 0.00 0.00 95 1015.9
20260507212129 16 267 0.0 0.0 0.00 0.00 0.00 95 1015.9
20260507211929 16 267 0.0 0.0 0.00 0.00 0.00 95 1015.9
20260507211720 16 267 0.0 0.0 0.00 0.00 0.00 95 1015.9
20260507211449 16 267 0.0 0.0 0.00 0.00 0.00 95 1015.9
20260507211236 16 267 0.0 0.0 0.00 0.00 0.00 95 1015.9
20260507210552 16 267 0.0 0.0 0.00 0.00 0.00 95 1015.9
20260507210313 16 267 0.0 0.0 0.00 0.00 0.00 95 1015.9
20260507210104 16 267 0.0 0.0 0.00 0.00 0.00 96 1015.9
20260507205906 16 267 0.0 3.2 0.00 0.00 0.00 96 1016.0
20260507205648 16 267 0.0 3.2 0.00 0.00 0.00 96 1016.0
20260507205443 16 267 0.0 3.2 0.00 0.00 0.00 96 1016.0
20260507205233 16 268 0.0 3.2 0.00 0.00 0.00 96 1016.0
20260507205003 16 267 0.0 3.2 0.00 0.00 0.00 96 1016.0
20260507204807 16 267 0.0 3.2 0.00 0.00 0.00 96 1016.0
20260507204555 16 267 0.0 3.2 0.00 0.00 0.00 96 1016.0
20260507204334 16 264 0.0 3.2 0.00 0.00 0.00 96 1016.0
20260507204136 16 264 0.0 3.2 0.00 0.00 0.00 96 1016.0
20260507203918 16 261 0.0 3.2 0.00 0.00 0.00 96 1016.0
20260507203711 16 274 0.0 0.0 0.00 0.00 0.00 96 1016.0
20260507203500 16 275 0.0 0.0 0.00 0.00 0.00 96 1016.0
20260507203222 16 275 0.0 0.0 0.00 0.00 0.00 96 1016.0
20260507203009 16 275 0.0 0.0 0.00 0.00 0.00 97 1016.0
20260507202744 16 275 0.0 0.0 0.00 0.00 0.00 97 1015.9
20260507202538 16 275 0.0 3.2 0.00 0.00 0.00 96 1015.9
20260507202332 16 275 0.0 3.2 0.00 0.00 0.00 96 1015.9
20260507202105 16 275 0.0 3.2 0.00 0.00 0.00 96 1015.9
20260507201918 16 275 0.0 3.2 0.00 0.00 0.00 97 1015.9
20260507201635 16 275 0.0 3.2 0.00 0.00 0.00 97 1015.9
20260507201450 16 280 0.0 3.2 0.00 0.00 0.00 97 1015.9
20260507201313 16 280 0.0 3.2 0.00 0.00 0.00 96 1015.9
20260507201142 16 256 0.0 3.2 0.00 0.00 0.00 96 1015.9
20260507200807 16 256 0.0 3.2 0.00 0.00 0.00 96 1015.9
20260507200610 16 254 0.0 1.6 0.00 0.00 0.00 96 1015.9
20260507200402 16 254 0.0 1.6 0.00 0.00 0.00 96 1015.9
20260507200205 16 257 0.0 1.6 0.00 0.00 0.00 96 1015.9
20260507195954 16 257 0.0 1.6 0.00 0.00 0.00 96 1015.9
20260507195753 16 260 0.0 3.2 0.00 0.00 0.00 96 1015.9
20260507195515 16 261 0.0 3.2 0.00 0.00 0.00 96 1015.9
20260507195306 16 261 0.0 3.2 0.00 0.00 0.00 96 1015.9
20260507195042 16 261 0.0 3.2 0.00 0.00 0.00 96 1015.9
20260507194846 16 261 0.0 0.0 0.00 0.00 0.00 96 1015.9
20260507194639 16 261 0.0 1.6 0.00 0.00 0.00 96 1015.9
20260507194236 16 261 0.0 3.2 0.00 0.00 0.00 96 1015.9
20260507194033 16 261 0.0 3.2 0.00 0.00 0.00 96 1015.9
20260507193821 16 261 0.0 3.2 0.00 0.00 0.00 96 1015.9
20260507193618 16 261 0.0 3.2 0.00 0.00 0.00 96 1015.9
20260507193418 16 261 0.0 3.2 0.00 0.00 0.00 96 1015.9
20260507193217 16 261 0.0 3.2 0.00 0.00 0.00 96 1015.9
20260507193054 16 265 0.0 3.2 0.00 0.00 0.00 96 1015.9
20260507192802 16 278 0.0 3.2 0.00 0.00 0.00 96 1015.8
20260507192625 16 278 0.0 0.0 0.00 0.00 0.00 96 1015.8
20260507192332 16 278 0.0 0.0 0.00 0.00 0.00 96 1015.8
20260507192206 16 278 0.0 0.0 0.00 0.00 0.00 96 1015.8
20260507192049 16 257 0.0 0.0 0.00 0.00 0.00 96 1015.8
20260507191700 16 257 0.0 1.6 0.00 0.00 0.00 96 1015.8
20260507191532 16 257 0.0 1.6 0.00 0.00 0.00 96 1015.8
20260507191231 16 257 0.0 1.6 0.00 0.00 0.00 96 1015.7
20260507191101 16 257 0.0 1.6 0.00 0.00 0.00 96 1015.7
20260507190826 16 257 0.0 0.0 0.00 0.00 0.00 96 1015.7
20260507190620 16 257 0.0 0.0 0.00 0.00 0.00 96 1015.7
20260507190354 16 257 0.0 0.0 0.00 0.00 0.00 96 1015.7
20260507190145 16 257 0.0 0.0 0.00 0.00 0.00 96 1015.7
20260507185944 16 257 0.0 0.0 0.00 0.00 0.00 96 1015.7
20260507185727 16 257 0.0 0.0 0.00 0.00 0.00 95 1015.6
20260507185515 16 257 0.0 0.0 0.00 0.00 0.00 95 1015.6
20260507185112 17 257 0.0 3.2 0.00 0.00 0.00 95 1015.6
20260507184905 17 257 0.0 3.2 0.00 0.00 0.00 95 1015.6
20260507184705 17 257 0.0 3.2 0.00 0.00 0.00 95 1015.6
20260507184442 17 257 0.0 3.2 0.00 0.00 0.00 95 1015.6
20260507184253 17 261 0.0 3.2 0.00 0.00 0.00 95 1015.5
20260507184037 17 244 0.0 3.2 0.00 0.00 0.00 94 1015.5
20260507183836 17 244 0.0 3.2 0.00 0.00 0.00 94 1015.5
20260507183620 17 247 0.0 3.2 0.00 0.00 0.00 94 1015.5
20260507183407 17 241 0.0 4.8 0.00 0.00 0.00 94 1015.5
20260507183205 17 246 0.0 4.8 0.00 0.00 0.00 94 1015.5
20260507182936 17 264 0.0 4.8 0.00 0.00 0.00 93 1015.5
20260507182506 17 240 0.0 4.8 0.00 0.00 0.00 93 1015.4
20260507182306 17 243 0.0 3.2 0.00 0.00 0.00 93 1015.4
20260507182107 17 243 0.0 0.0 0.00 0.00 0.00 92 1015.4
20260507181855 17 243 0.0 1.6 0.00 0.00 0.00 92 1015.4
20260507181632 17 243 0.0 1.6 0.00 0.00 0.00 92 1015.4
20260507181432 17 243 0.0 1.6 0.00 0.00 0.00 92 1015.4
20260507180941 17 243 0.0 4.8 0.00 0.00 0.00 91 1015.4
20260507180733 17 243 0.0 4.8 0.00 0.00 0.00 91 1015.4
20260507180505 17 243 0.0 4.8 0.00 0.00 0.00 91 1015.4
20260507180302 17 244 0.0 1.6 0.00 0.00 0.00 91 1015.4
20260507180044 18 244 0.0 1.6 0.00 0.00 0.00 90 1015.4
20260507175842 18 243 0.0 0.0 0.00 0.00 0.00 90 1015.2
20260507175357 18 243 0.0 0.0 0.00 0.00 0.00 89 1015.2
20260507175152 18 247 0.0 0.0 0.00 0.00 0.00 89 1015.2
20260507174944 18 244 0.0 0.0 0.00 0.00 0.00 89 1015.2
20260507174743 18 243 0.0 0.0 0.00 0.00 0.00 89 1015.2
20260507174515 18 243 0.0 0.0 0.00 0.00 0.00 89 1015.2
20260507174305 18 243 0.0 4.8 0.00 0.00 0.00 88 1015.3
20260507173841 18 243 0.0 4.8 0.00 0.00 0.00 88 1015.3
20260507173639 18 243 0.0 4.8 0.00 0.00 0.00 87 1015.3
20260507173422 18 243 0.0 4.8 0.00 0.00 0.00 87 1015.3
20260507173216 18 20 0.0 1.6 0.00 0.00 0.00 86 1015.3
20260507173029 18 20 0.0 0.0 0.00 0.00 0.00 87 1015.3
20260507172814 18 20 0.0 0.0 0.00 0.00 0.00 87 1015.2
20260507172606 18 20 0.0 0.0 0.00 0.00 0.00 86 1015.2
20260507172353 18 20 0.0 0.0 0.00 0.00 0.00 86 1015.2
20260507172133 18 20 0.0 0.0 0.00 0.00 0.00 86 1015.2
20260507171702 18 20 0.0 0.0 0.00 0.00 0.00 86 1015.2
20260507171459 18 20 0.0 0.0 0.00 0.00 0.00 86 1015.2
20260507171250 18 20 0.0 0.0 0.00 0.00 0.00 86 1015.1
20260507171054 18 20 0.0 0.0 0.00 0.00 0.00 86 1015.1
20260507170842 18 20 0.0 0.0 0.00 0.00 0.00 86 1015.1
20260507170626 19 20 0.0 0.0 0.00 0.00 0.00 85 1015.1
20260507170433 19 20 0.0 0.0 0.00 0.00 0.00 85 1015.1
20260507170209 19 20 0.0 0.0 0.00 0.00 0.00 85 1015.1
20260507165947 19 20 0.0 0.0 0.00 0.00 0.00 85 1015.1
20260507165736 19 20 0.0 0.0 0.00 0.00 0.00 85 1015.3
20260507165532 19 20 0.0 0.0 0.00 0.00 0.00 85 1015.3
20260507165320 19 20 0.0 0.0 0.00 0.00 0.00 84 1015.3
20260507165114 19 20 0.0 0.0 0.00 0.00 0.00 85 1015.3
20260507164859 19 20 0.0 3.2 0.00 0.00 0.00 84 1015.3
20260507164653 19 20 0.0 3.2 0.00 0.00 0.00 84 1015.3
20260507164439 19 20 0.0 3.2 0.00 0.00 0.00 83 1015.3
20260507164232 19 20 0.0 3.2 0.00 0.00 0.00 83 1015.1
20260507164055 19 20 0.0 3.2 0.00 0.00 0.00 83 1015.1
20260507163925 19 20 0.0 0.0 0.00 0.00 0.00 82 1015.1
20260507163615 19 20 0.0 0.0 0.00 0.00 0.00 82 1015.1
20260507163415 19 20 0.0 3.2 0.00 0.00 0.00 81 1015.1
20260507163155 19 20 0.0 3.2 0.00 0.00 0.00 81 1015.1
20260507162945 19 20 0.0 4.8 0.00 0.00 0.00 82 1015.1
20260507162534 19 20 0.0 4.8 0.00 0.00 0.00 81 1015.4
20260507162334 19 20 0.0 4.8 0.00 0.00 0.00 81 1015.4
20260507162138 19 20 0.0 4.8 0.00 0.00 0.00 81 1015.4
20260507161932 19 350 0.0 0.0 0.00 0.00 0.00 81 1015.4
20260507161520 19 291 0.0 0.0 0.00 0.00 0.00 82 1015.4
20260507161359 19 291 0.0 0.0 0.00 0.00 0.00 81 1015.6
20260507161033 19 291 0.0 0.0 0.00 0.00 0.00 81 1015.6
20260507160830 19 291 0.0 1.6 0.00 0.00 0.00 81 1015.6
20260507160551 19 291 0.0 1.6 0.00 0.00 0.00 81 1015.6
20260507160348 19 291 0.0 1.6 0.00 0.00 0.00 81 1015.6
20260507160116 19 291 0.0 1.6 0.00 0.00 0.00 81 1015.6
20260507155910 20 291 0.0 0.0 0.00 0.00 0.00 81 1015.5
20260507155436 20 0 0.0 0.0 0.00 0.00 0.00 81 1015.5
20260507155238 20 0 0.0 0.0 0.00 0.00 0.00 81 1015.5
20260507155037 20 0 0.0 0.0 0.00 0.00 0.00 81 1015.5
20260507154836 20 0 0.0 0.0 0.00 0.00 0.00 80 1015.5
20260507154605 20 0 0.0 0.0 0.00 0.00 0.00 80 1015.5
20260507154348 20 0 0.0 0.0 0.00 0.00 0.00 80 1015.9
20260507154139 20 0 0.0 3.2 0.00 0.00 0.00 80 1015.9
20260507153908 20 0 0.0 4.8 0.00 0.00 0.00 80 1015.9
20260507153648 20 0 0.0 4.8 0.00 0.00 0.00 80 1015.9
20260507153430 20 0 1.6 4.8 0.00 0.00 0.00 80 1015.9
20260507153205 20 315 1.6 4.8 0.00 0.00 0.00 80 1015.9
20260507153009 20 359 0.0 4.8 0.00 0.00 0.00 80 1015.9
20260507152759 20 325 0.0 4.8 0.00 0.00 0.00 79 1015.9
20260507152539 20 322 0.0 4.8 0.00 0.00 0.00 79 1015.9
20260507152336 20 328 0.0 3.2 0.00 0.00 0.00 79 1015.9
20260507152125 20 296 0.0 3.2 0.00 0.00 0.00 79 1015.9
20260507151901 20 296 0.0 3.2 0.00 0.00 0.00 78 1015.9
20260507151700 20 296 0.0 3.2 0.00 0.00 0.00 78 1015.9
20260507151234 20 31 0.0 0.0 0.00 0.00 0.00 77 1016.0
20260507151046 20 28 0.0 0.0 0.00 0.00 0.00 77 1016.0
20260507150837 20 31 0.0 0.0 0.00 0.00 0.00 77 1016.0
20260507150635 20 40 0.0 0.0 0.00 0.00 0.00 77 1016.0
20260507150428 20 42 0.0 0.0 0.00 0.00 0.00 77 1016.0
20260507150228 20 45 0.0 0.0 0.00 0.00 0.00 77 1016.0
20260507150035 20 45 0.0 0.0 0.00 0.00 0.00 77 1016.0
20260507145828 20 40 0.0 0.0 0.00 0.00 0.00 76 1016.1
20260507145624 20 47 0.0 0.0 0.00 0.00 0.00 76 1016.1
20260507145420 20 44 0.0 0.0 0.00 0.00 0.00 77 1016.1
20260507145210 20 34 0.0 0.0 0.00 0.00 0.00 77 1016.1
20260507145016 20 30 0.0 0.0 0.00 0.00 0.00 76 1016.1
20260507144821 20 40 0.0 0.0 0.00 0.00 0.00 77 1016.1
20260507144651 20 24 0.0 0.0 0.00 0.00 0.00 76 1016.1
20260507144410 20 25 0.0 1.6 0.00 0.00 0.00 76 1016.0
20260507144217 20 40 0.0 4.8 0.00 0.00 0.00 76 1016.0
20260507144024 20 42 0.0 4.8 0.00 0.00 0.00 76 1016.0
20260507143804 20 51 0.0 4.8 0.00 0.00 0.00 76 1016.0
20260507143605 20 23 0.0 4.8 0.00 0.00 0.00 76 1016.0
20260507143404 20 86 0.0 4.8 0.00 0.00 0.00 76 1016.0
20260507143207 20 38 0.0 1.6 0.00 0.00 0.00 76 1016.0
20260507143017 20 69 0.0 1.6 0.00 0.00 0.00 76 1016.0
20260507142804 20 59 0.0 1.6 0.00 0.00 0.00 76 1016.1
20260507142608 20 62 0.0 1.6 0.00 0.00 0.00 76 1016.1
20260507142352 20 62 0.0 0.0 0.00 0.00 0.00 76 1016.1
20260507142201 20 65 0.0 0.0 0.00 0.00 0.00 76 1016.1
20260507142003 20 35 0.0 0.0 0.00 0.00 0.00 76 1016.1
20260507141802 20 59 0.0 0.0 0.00 0.00 0.00 75 1016.1
20260507141557 20 66 0.0 0.0 0.00 0.00 0.00 75 1016.1
20260507141348 20 34 0.0 0.0 0.00 0.00 0.00 75 1016.0
20260507141137 20 34 0.0 0.0 0.00 0.00 0.00 75 1016.0
20260507140713 20 34 0.0 3.2 0.00 0.00 0.00 75 1016.0
20260507140508 20 34 0.0 3.2 0.00 0.00 0.00 75 1016.0
20260507140301 20 34 0.0 3.2 0.00 0.00 0.00 74 1016.0
20260507140045 20 23 0.0 3.2 0.00 0.00 0.00 74 1016.0
20260507135830 20 37 0.0 1.6 0.00 0.00 0.00 74 1016.0
20260507135628 20 37 0.0 0.0 0.00 0.00 0.00 74 1016.0
20260507135208 20 37 0.0 4.8 0.00 0.00 0.00 73 1016.0
20260507135000 20 37 0.0 8.0 0.00 0.00 0.00 74 1016.0
20260507134802 20 37 0.0 8.0 0.00 0.00 0.00 74 1016.0
20260507134537 20 37 1.6 8.0 0.00 0.00 0.00 74 1016.0
20260507134329 20 37 1.6 8.0 0.00 0.00 0.00 74 1016.0
20260507134130 20 35 0.0 4.8 0.00 0.00 0.00 74 1016.0
20260507133943 20 35 0.0 4.8 0.00 0.00 0.00 74 1016.0
20260507133738 20 35 0.0 4.8 0.00 0.00 0.00 74 1016.0
20260507133514 20 65 1.6 4.8 0.00 0.00 0.00 74 1016.0
20260507133313 20 65 1.6 4.8 0.00 0.00 0.00 74 1015.9
20260507133110 20 65 1.6 4.8 0.00 0.00 0.00 74 1015.9
20260507132859 20 30 3.2 8.0 0.00 0.00 0.00 74 1016.0
20260507132711 20 45 3.2 8.0 0.00 0.00 0.00 73 1016.0
20260507132546 20 34 1.6 8.0 0.00 0.00 0.00 73 1016.0
20260507132245 20 45 1.6 8.0 0.00 0.00 0.00 74 1016.0
20260507132109 20 35 1.6 8.0 0.00 0.00 0.00 73 1016.0
20260507131941 20 40 1.6 6.4 0.00 0.00 0.00 74 1016.0
20260507131637 20 44 0.0 8.0 0.00 0.00 0.00 74 1016.0
20260507131429 19 35 0.0 8.0 0.00 0.00 0.00 74 1016.0
20260507131223 19 38 0.0 8.0 0.00 0.00 0.00 74 1016.0
20260507131014 19 40 0.0 8.0 0.00 0.00 0.00 74 1016.0
20260507130803 19 40 0.0 8.0 0.00 0.00 0.00 74 1016.0
20260507130555 20 40 0.0 4.8 0.00 0.00 0.00 74 1016.0
20260507130400 20 40 0.0 4.8 0.00 0.00 0.00 74 1016.0
20260507130140 20 40 0.0 4.8 0.00 0.00 0.00 74 1016.0
20260507125929 20 34 0.0 1.6 0.00 0.00 0.00 75 1016.0
20260507125723 20 11 0.0 1.6 0.00 0.00 0.00 75 1016.5
20260507125523 20 11 0.0 0.0 0.00 0.00 0.00 75 1016.5
20260507125327 19 11 0.0 1.6 0.00 0.00 0.00 75 1016.5
20260507125109 19 11 0.0 1.6 0.00 0.00 0.00 75 1016.5
20260507124902 19 11 0.0 4.8 0.00 0.00 0.00 75 1016.5
20260507124702 19 11 0.0 4.8 0.00 0.00 0.00 75 1016.5
20260507124507 19 11 0.0 8.0 0.00 0.00 0.00 75 1016.5
20260507124342 19 11 1.6 8.0 0.00 0.00 0.00 75 1016.7
20260507124031 19 11 1.6 8.0 0.00 0.00 0.00 75 1016.7
20260507123820 19 3 1.6 8.0 0.00 0.00 0.00 76 1016.7
20260507123619 19 340 1.6 8.0 0.00 0.00 0.00 76 1016.7
20260507123427 19 0 1.6 8.0 0.00 0.00 0.00 76 1016.7
20260507123007 18 343 1.6 8.0 0.00 0.00 0.00 76 1016.7
20260507122757 18 315 1.6 8.0 0.00 0.00 0.00 76 1016.2
20260507122602 18 340 1.6 8.0 0.00 0.00 0.00 76 1016.2
20260507122427 18 313 1.6 8.0 0.00 0.00 0.00 76 1016.2
20260507122147 18 312 3.2 9.7 0.00 0.00 0.00 75 1016.2
20260507121934 18 295 3.2 9.7 0.00 0.00 0.00 76 1016.2
20260507121736 18 325 4.8 9.7 0.00 0.00 0.00 76 1016.2
20260507121530 18 339 4.8 11.3 0.00 0.00 0.00 76 1016.2
20260507121324 18 356 4.8 11.3 0.00 0.00 0.00 76 1016.8
20260507121126 18 336 4.8 11.3 0.00 0.00 0.00 76 1016.8
20260507120931 18 353 3.2 11.3 0.00 0.00 0.00 76 1016.8
20260507120727 18 32 3.2 11.3 0.00 0.00 0.00 76 1016.8
20260507120529 18 0 3.2 9.7 0.00 0.00 0.00 76 1016.8
20260507120329 18 21 3.2 9.7 0.00 0.00 0.00 76 1016.8
20260507120130 18 27 3.2 9.7 0.00 0.00 0.00 76 1016.8
20260507115921 18 38 3.2 9.7 0.00 0.00 0.00 76 1016.8
20260507115722 18 27 3.2 11.3 0.00 0.00 0.00 76 1017.4
20260507115516 18 11 3.2 11.3 0.00 0.00 0.00 77 1017.4
20260507115313 18 301 3.2 11.3 0.00 0.00 0.00 77 1017.4
20260507115118 18 325 3.2 11.3 0.00 0.00 0.00 78 1017.4
20260507114914 18 306 3.2 11.3 0.00 0.00 0.00 78 1017.4
20260507114723 18 305 3.2 11.3 0.00 0.00 0.00 80 1017.4
20260507114537 18 0 4.8 11.3 0.00 0.00 0.00 80 1017.4
20260507114357 18 337 4.8 11.3 0.00 0.00 0.00 80 1017.4
20260507114105 18 6 4.8 11.3 0.00 0.00 0.00 80 1017.4
20260507113911 18 329 4.8 11.3 0.00 0.00 0.00 81 1017.4
20260507113712 18 359 4.8 11.3 0.00 0.00 0.00 81 1017.4
20260507113518 18 0 4.8 11.3 0.00 0.00 0.00 81 1017.4
20260507113301 18 333 3.2 11.3 0.00 0.00 0.00 82 1017.4
20260507113102 18 323 3.2 11.3 0.00 0.00 0.00 82 1017.4
20260507112900 18 326 3.2 11.3 0.00 0.00 0.00 82 1017.3
20260507112705 18 343 1.6 11.3 0.00 0.00 0.00 84 1017.3
20260507112457 18 323 1.6 9.7 0.00 0.00 0.00 83 1017.3
20260507112256 18 318 1.6 8.0 0.00 0.00 0.00 83 1017.3
20260507112100 18 292 1.6 8.0 0.00 0.00 0.00 83 1017.3
20260507111901 18 350 1.6 8.0 0.00 0.00 0.00 83 1017.3
20260507111433 18 13 1.6 8.0 0.00 0.00 0.00 82 1017.3
20260507111233 18 337 1.6 8.0 0.00 0.00 0.00 82 1017.4
20260507111022 18 59 1.6 4.8 0.00 0.00 0.00 82 1017.4
20260507110829 18 346 1.6 4.8 0.00 0.00 0.00 81 1017.4
20260507110423 18 316 0.0 4.8 0.00 0.00 0.00 80 1017.4
20260507110259 18 339 1.6 4.8 0.00 0.00 0.00 80 1017.4
20260507105951 18 343 1.6 8.0 0.00 0.00 0.00 80 1017.4
20260507105752 18 311 1.6 8.0 0.00 0.00 0.00 79 1017.4
20260507105126 18 332 1.6 8.0 0.00 0.00 0.00 78 1017.4
20260507104925 18 0 1.6 8.0 0.00 0.00 0.00 77 1017.4
20260507104720 18 347 1.6 8.0 0.00 0.00 0.00 77 1017.4
20260507104520 18 342 1.6 8.0 0.00 0.00 0.00 76 1017.4
20260507104315 18 328 1.6 8.0 0.00 0.00 0.00 76 1017.4
20260507104116 18 325 1.6 8.0 0.00 0.00 0.00 75 1017.4
20260507103902 18 325 1.6 8.0 0.00 0.00 0.00 75 1017.4
20260507103656 18 328 1.6 9.7 0.00 0.00 0.00 75 1017.4
20260507103436 18 299 1.6 9.7 0.00 0.00 0.00 74 1017.4
20260507103243 18 302 3.2 9.7 0.00 0.00 0.00 74 1017.4
20260507102816 18 344 3.2 9.7 0.00 0.00 0.00 73 1017.2
20260507102612 18 320 1.6 8.0 0.00 0.00 0.00 73 1017.2
20260507102412 19 347 1.6 8.0 0.00 0.00 0.00 72 1017.2
20260507102159 19 11 1.6 9.7 0.00 0.00 0.00 72 1017.2
20260507101950 19 333 1.6 9.7 0.00 0.00 0.00 71 1017.2
20260507101803 19 350 1.6 9.7 0.00 0.00 0.00 71 1017.2
20260507101645 19 336 1.6 9.7 0.00 0.00 0.00 71 1017.2
20260507101347 19 349 0.0 8.0 0.00 0.00 0.00 71 1017.2
20260507101147 19 344 0.0 8.0 0.00 0.00 0.00 72 1017.2
20260507100947 19 0 0.0 8.0 0.00 0.00 0.00 72 1017.2
20260507100750 19 21 0.0 4.8 0.00 0.00 0.00 72 1017.2
20260507100548 19 21 0.0 4.8 0.00 0.00 0.00 72 1017.2
20260507100401 19 24 0.0 4.8 0.00 0.00 0.00 72 1017.2
20260507100124 19 3 0.0 4.8 0.00 0.00 0.00 72 1017.2
20260507095953 19 3 0.0 4.8 0.00 0.00 0.00 72 1017.1
20260507095715 19 325 0.0 6.4 0.00 0.00 0.00 71 1017.1
20260507095543 19 0 1.6 8.0 0.00 0.00 0.00 71 1017.1
20260507095257 19 11 1.6 8.0 0.00 0.00 0.00 70 1017.1
20260507095137 19 11 3.2 8.0 0.00 0.00 0.00 70 1017.1
20260507094800 19 10 3.2 8.0 0.00 0.00 0.00 69 1017.1
20260507094620 19 0 3.2 9.7 0.00 0.00 0.00 69 1017.1
20260507094327 19 342 4.8 9.7 0.00 0.00 0.00 69 1017.0
20260507094125 19 0 4.8 9.7 0.00 0.00 0.00 69 1017.0
20260507093728 19 0 4.8 11.3 0.00 0.00 0.00 69 1017.0
20260507093513 19 0 4.8 11.3 0.00 0.00 0.00 69 1017.0
20260507093308 19 344 4.8 11.3 0.00 0.00 0.00 69 1017.0
20260507093105 19 352 4.8 11.3 0.00 0.00 0.00 68 1017.0
20260507092703 19 333 3.2 9.7 0.00 0.00 0.00 69 1016.9
20260507092505 19 356 3.2 9.7 0.00 0.00 0.00 69 1016.9
20260507092312 19 0 3.2 11.3 0.00 0.00 0.00 69 1016.9
20260507092129 19 330 3.2 11.3 0.00 0.00 0.00 69 1016.9
20260507092002 19 0 3.2 11.3 0.00 0.00 0.00 69 1016.9
20260507091707 19 354 3.2 11.3 0.00 0.00 0.00 69 1016.9
20260507091545 19 350 3.2 11.3 0.00 0.00 0.00 69 1016.9
20260507091246 19 0 3.2 9.7 0.00 0.00 0.00 70 1016.5
20260507091048 19 0 3.2 9.7 0.00 0.00 0.00 70 1016.5
20260507090843 19 326 3.2 9.7 0.00 0.00 0.00 70 1016.5
20260507090645 19 0 3.2 9.7 0.00 0.00 0.00 70 1016.5
20260507090447 19 329 3.2 9.7 0.00 0.00 0.00 70 1016.5
20260507090240 19 336 3.2 9.7 0.00 0.00 0.00 70 1016.5
20260507090045 19 18 3.2 11.3 0.00 0.00 0.00 70 1016.5
20260507085842 19 0 3.2 11.3 0.00 0.00 0.00 70 1016.3
20260507085644 19 0 3.2 11.3 0.00 0.00 0.00 70 1016.3
20260507085447 19 27 3.2 11.3 0.00 0.00 0.00 70 1016.3
20260507085300 19 0 3.2 11.3 0.00 0.00 0.00 70 1016.3
20260507085123 19 3 3.2 11.3 0.00 0.00 0.00 71 1016.3
20260507084906 19 17 3.2 9.7 0.00 0.00 0.00 71 1016.3
20260507084620 19 25 3.2 9.7 0.00 0.00 0.00 71 1016.3
20260507084412 19 20 4.8 9.7 0.00 0.00 0.00 70 1016.3
20260507084215 19 14 4.8 9.7 0.00 0.00 0.00 70 1016.1
20260507084010 19 0 3.2 9.7 0.00 0.00 0.00 71 1016.1
20260507083606 19 0 4.8 11.3 0.00 0.00 0.00 70 1016.1
20260507083407 19 20 4.8 11.3 0.00 0.00 0.00 70 1016.1
20260507083221 19 1 4.8 11.3 0.00 0.00 0.00 70 1016.1
20260507083023 19 11 4.8 11.3 0.00 0.00 0.00 69 1016.1
20260507082836 19 47 4.8 11.3 0.00 0.00 0.00 69 1016.0
20260507082704 19 352 4.8 11.3 0.00 0.00 0.00 69 1016.0
20260507082435 20 357 3.2 12.9 0.00 0.00 0.00 69 1016.0
20260507082200 20 0 3.2 12.9 0.00 0.00 0.00 68 1016.0
20260507081958 20 20 3.2 12.9 0.00 0.00 0.00 68 1016.0
20260507081750 20 10 3.2 12.9 0.00 0.00 0.00 67 1016.0
20260507081550 20 31 3.2 12.9 0.00 0.00 0.00 67 1016.0
20260507081354 20 356 1.6 9.7 0.00 0.00 0.00 67 1016.0
20260507081141 20 0 3.2 9.7 0.00 0.00 0.00 67 1016.0
20260507080940 20 34 1.6 9.7 0.00 0.00 0.00 66 1016.0
20260507080739 20 356 3.2 9.7 0.00 0.00 0.00 66 1016.0
20260507080542 20 24 3.2 9.7 0.00 0.00 0.00 66 1016.0
20260507080337 20 320 3.2 9.7 0.00 0.00 0.00 66 1016.0
20260507080127 20 343 1.6 9.7 0.00 0.00 0.00 66 1016.0
20260507075928 20 11 1.6 8.0 0.00 0.00 0.00 66 1016.0
20260507075728 20 342 1.6 8.0 0.00 0.00 0.00 67 1015.9
20260507075526 20 257 1.6 8.0 0.00 0.00 0.00 66 1015.9
20260507075325 20 291 1.6 8.0 0.00 0.00 0.00 67 1015.9
20260507075140 20 281 1.6 8.0 0.00 0.00 0.00 68 1015.8
20260507075011 20 336 1.6 9.7 0.00 0.00 0.00 68 1015.8
20260507074838 20 13 3.2 11.3 0.00 0.00 0.00 68 1015.8
20260507074651 20 299 3.2 11.3 0.00 0.00 0.00 68 1015.8
20260507074518 19 356 4.8 11.3 0.00 0.00 0.00 69 1015.8
20260507074324 19 328 4.8 11.3 0.00 0.00 0.00 69 1015.8
20260507074115 19 305 3.2 11.3 0.00 0.00 0.00 69 1015.8
20260507073836 19 272 3.2 11.3 0.00 0.00 0.00 70 1015.8
20260507073634 19 312 3.2 11.3 0.00 0.00 0.00 70 1015.8
20260507073406 19 294 1.6 9.7 0.00 0.00 0.00 71 1015.8
20260507073155 19 284 3.2 11.3 0.00 0.00 0.00 72 1015.8
20260507072924 19 284 3.2 11.3 0.00 0.00 0.00 73 1015.9
20260507072707 19 18 4.8 11.3 0.00 0.00 0.00 74 1015.9
20260507072516 18 333 4.8 11.3 0.00 0.00 0.00 73 1015.9
20260507072300 18 0 3.2 11.3 0.00 0.00 0.00 74 1015.9
20260507072106 18 313 3.2 12.9 0.00 0.00 0.00 75 1015.9
20260507071841 18 0 3.2 12.9 0.00 0.00 0.00 75 1015.9
20260507071635 18 299 4.8 12.9 0.00 0.00 0.00 76 1015.9
20260507071421 18 319 4.8 12.9 0.00 0.00 0.00 76 1015.9
20260507071221 18 332 4.8 14.5 0.00 0.00 0.00 76 1015.8
20260507071018 18 335 4.8 14.5 0.00 0.00 0.00 77 1015.8
20260507070813 18 326 4.8 14.5 0.00 0.00 0.00 78 1015.8
20260507070617 18 340 3.2 14.5 0.00 0.00 0.00 78 1015.8
20260507070410 18 318 3.2 14.5 0.00 0.00 0.00 79 1015.8
20260507070215 18 316 3.2 9.7 0.00 0.00 0.00 79 1015.8
20260507070020 18 289 1.6 9.7 0.00 0.00 0.00 80 1015.8
20260507065822 18 328 1.6 9.7 0.00 0.00 0.00 80 1015.7
20260507065610 18 318 1.6 9.7 0.00 0.00 0.00 81 1015.7
20260507065412 18 315 3.2 9.7 0.00 0.00 0.00 81 1015.7
20260507065204 18 357 3.2 9.7 0.00 0.00 0.00 82 1015.7
20260507065010 17 0 3.2 9.7 0.00 0.00 0.00 82 1015.7
20260507064818 17 0 4.8 11.3 0.00 0.00 0.00 82 1015.7
20260507064633 17 3 4.8 11.3 0.00 0.00 0.00 82 1015.7
20260507064509 17 333 3.2 11.3 0.00 0.00 0.00 82 1015.9
20260507064233 17 0 3.2 11.3 0.00 0.00 0.00 82 1015.9
20260507064102 17 40 1.6 11.3 0.00 0.00 0.00 82 1015.9
20260507063933 17 0 1.6 9.7 0.00 0.00 0.00 82 1015.9
20260507063649 17 21 1.6 9.7 0.00 0.00 0.00 83 1015.9
20260507063451 17 34 1.6 9.7 0.00 0.00 0.00 82 1015.9
20260507063158 17 37 0.0 4.8 0.00 0.00 0.00 83 1015.9
20260507062950 17 31 1.6 4.8 0.00 0.00 0.00 83 1015.9
20260507062753 17 23 1.6 4.8 0.00 0.00 0.00 83 1015.9
20260507062529 17 0 1.6 4.8 0.00 0.00 0.00 83 1015.9
20260507062343 17 0 1.6 4.8 0.00 0.00 0.00 83 1015.9
20260507062126 17 346 1.6 6.4 0.00 0.00 0.00 83 1015.9
20260507061925 17 339 1.6 9.7 0.00 0.00 0.00 83 1015.9
20260507061522 17 49 3.2 9.7 0.00 0.00 0.00 83 1015.9
20260507061335 17 356 3.2 9.7 0.00 0.00 0.00 83 1015.8
20260507061118 17 34 3.2 9.7 0.00 0.00 0.00 83 1015.8
20260507060919 17 0 3.2 9.7 0.00 0.00 0.00 83 1015.8
20260507060718 17 18 3.2 9.7 0.00 0.00 0.00 83 1015.8
20260507060543 17 27 3.2 9.7 0.00 0.00 0.00 83 1015.8
20260507060350 17 28 3.2 9.7 0.00 0.00 0.00 83 1015.8
20260507060147 17 32 3.2 9.7 0.00 0.00 0.00 83 1015.8
20260507055949 17 38 3.2 9.7 0.00 0.00 0.00 83 1015.7
20260507055749 17 30 3.2 9.7 0.00 0.00 0.00 84 1015.7
20260507055605 17 38 3.2 9.7 0.00 0.00 0.00 84 1015.7
20260507055310 17 30 3.2 9.7 0.00 0.00 0.00 84 1015.7
20260507055059 17 34 3.2 9.7 0.00 0.00 0.00 85 1015.7
20260507054916 17 13 4.8 9.7 0.00 0.00 0.00 85 1015.7
20260507054743 17 13 4.8 9.7 0.00 0.00 0.00 85 1015.7
20260507054609 17 18 4.8 11.3 0.00 0.00 0.00 86 1015.7
20260507054438 16 4 4.8 11.3 0.00 0.00 0.00 86 1015.6
20260507054154 16 357 6.4 11.3 0.00 0.00 0.00 86 1015.6
20260507054027 16 14 4.8 11.3 0.00 0.00 0.00 86 1015.6
20260507053841 16 6 4.8 11.3 0.00 0.00 0.00 86 1015.6
20260507053540 16 8 4.8 9.7 0.00 0.00 0.00 86 1015.6
20260507053340 16 8 4.8 9.7 0.00 0.00 0.00 86 1015.6
20260507053044 16 14 3.2 9.7 0.00 0.00 0.00 86 1015.6
20260507052840 16 4 3.2 9.7 0.00 0.00 0.00 86 1015.4
20260507052648 16 6 3.2 8.0 0.00 0.00 0.00 86 1015.4
20260507052515 16 10 3.2 4.8 0.00 0.00 0.00 86 1015.4
20260507052340 16 14 3.2 8.0 0.00 0.00 0.00 86 1015.4
20260507052032 16 20 3.2 8.0 0.00 0.00 0.00 86 1015.4
20260507051846 16 32 1.6 8.0 0.00 0.00 0.00 87 1015.4
20260507051625 16 21 1.6 8.0 0.00 0.00 0.00 87 1015.4
20260507051418 16 17 1.6 8.0 0.00 0.00 0.00 87 1015.4
20260507051015 16 31 0.0 4.8 0.00 0.00 0.00 88 1015.4
20260507050819 16 23 0.0 4.8 0.00 0.00 0.00 88 1015.4
20260507050620 16 13 0.0 1.6 0.00 0.00 0.00 88 1015.3
20260507050422 15 13 0.0 0.0 0.00 0.00 0.00 89 1015.3
20260507045950 15 13 0.0 0.0 0.00 0.00 0.00 89 1015.3
20260507045753 15 13 0.0 0.0 0.00 0.00 0.00 89 1015.2
20260507045600 15 14 0.0 0.0 0.00 0.00 0.00 89 1015.2
20260507045338 15 14 0.0 0.0 0.00 0.00 0.00 88 1015.2
20260507045140 15 23 0.0 0.0 0.00 0.00 0.00 88 1015.2
20260507044928 15 27 0.0 0.0 0.00 0.00 0.00 88 1015.2
20260507044744 15 14 0.0 0.0 0.00 0.00 0.00 88 1015.2
20260507044557 15 17 0.0 0.0 0.00 0.00 0.00 88 1015.2
20260507044418 15 45 0.0 0.0 0.00 0.00 0.00 88 1015.0
20260507044145 15 48 0.0 0.0 0.00 0.00 0.00 88 1015.0
20260507043919 15 14 0.0 0.0 0.00 0.00 0.00 88 1015.0
20260507043712 15 14 0.0 0.0 0.00 0.00 0.00 89 1015.0
20260507043518 15 14 0.0 0.0 0.00 0.00 0.00 89 1015.0
20260507043254 15 13 0.0 0.0 0.00 0.00 0.00 89 1015.0
20260507043057 15 13 0.0 0.0 0.00 0.00 0.00 89 1015.0
20260507042850 15 13 0.0 0.0 0.00 0.00 0.00 90 1015.2
20260507042646 15 13 0.0 0.0 0.00 0.00 0.00 89 1015.2
20260507042421 15 13 0.0 0.0 0.00 0.00 0.00 90 1015.2
20260507042209 15 20 0.0 0.0 0.00 0.00 0.00 90 1015.2
20260507042008 15 27 0.0 0.0 0.00 0.00 0.00 90 1015.2
20260507041813 14 44 0.0 0.0 0.00 0.00 0.00 89 1015.2
20260507041618 14 25 0.0 0.0 0.00 0.00 0.00 89 1015.2
20260507041416 14 30 0.0 0.0 0.00 0.00 0.00 89 1014.9
20260507041259 14 13 0.0 0.0 0.00 0.00 0.00 89 1014.9
20260507041007 14 13 0.0 0.0 0.00 0.00 0.00 89 1014.9
20260507040751 14 13 0.0 0.0 0.00 0.00 0.00 89 1014.9
20260507040416 14 13 0.0 0.0 0.00 0.00 0.00 89 1014.9
20260507040210 13 13 0.0 0.0 0.00 0.00 0.00 89 1014.9
20260507040011 13 13 0.0 0.0 0.00 0.00 0.00 88 1014.9
20260507035925 13 13 0.0 4.8 0.00 0.00 0.00 84 1014.6
20260507035814 13 13 0.0 0.0 0.00 0.00 0.00 88 1014.8
20260507035548 13 13 0.0 1.6 0.00 0.00 0.00 88 1014.8
20260507035420 13 13 0.0 1.6 0.00 0.00 0.00 88 1014.8
20260507035221 13 0 0.0 1.6 0.00 0.00 0.00 87 1014.8
20260507034925 13 0 0.0 3.2 0.00 0.00 0.00 87 1014.8
20260507034740 13 0 0.0 3.2 0.00 0.00 0.00 87 1014.8
20260507034629 13 0 0.0 3.2 0.00 0.00 0.00 87 1014.8
20260507034405 13 349 0.0 0.0 0.00 0.00 0.00 86 1014.8
20260507034258 13 349 0.0 0.0 0.00 0.00 0.00 86 1014.8
20260507034127 13 349 0.0 0.0 0.00 0.00 0.00 86 1014.8
20260507034023 13 349 0.0 0.0 0.00 0.00 0.00 86 1014.8
20260507033905 13 349 0.0 4.8 0.00 0.00 0.00 86 1014.7
20260507033738 13 349 0.0 4.8 0.00 0.00 0.00 86 1014.7
20260507033445 13 0 1.6 4.8 0.00 0.00 0.00 86 1014.7
20260507033313 13 0 1.6 4.8 0.00 0.00 0.00 85 1014.7
20260507033108 13 359 1.6 4.8 0.00 0.00 0.00 85 1014.7
20260507032718 13 353 1.6 4.8 0.00 0.00 0.00 85 1014.7
20260507032010 13 325 0.0 3.2 0.00 0.00 0.00 84 1014.6
20260507031838 13 13 0.0 4.8 0.00 0.00 0.00 84 1014.6
20260507031556 13 14 0.0 4.8 0.00 0.00 0.00 84 1014.6
20260507031310 13 13 0.0 4.8 0.00 0.00 0.00 84 1014.6
20260507030818 13 16 0.0 4.8 0.00 0.00 0.00 84 1014.6
20260507030620 13 295 0.0 0.0 0.00 0.00 0.00 84 1014.4
20260507030321 13 295 0.0 0.0 0.00 0.00 0.00 84 1014.4
20260507030138 13 294 0.0 0.0 0.00 0.00 0.00 84 1014.4
20260507025905 13 285 0.0 0.0 0.00 0.00 0.00 84 1014.4
20260507025645 13 285 0.0 0.0 0.00 0.00 0.00 84 1014.4
20260507025143 13 285 0.0 0.0 0.00 0.00 0.00 84 1014.4
20260507024938 14 285 0.0 0.0 0.00 0.00 0.00 84 1014.4
20260507024739 14 285 0.0 0.0 0.00 0.00 0.00 84 1014.4
20260507024417 14 285 0.0 0.0 0.00 0.00 0.00 85 1014.4
20260507024016 14 285 0.0 0.0 0.00 0.00 0.00 85 1014.4